| time (UTC) | temp F | wind direction | speed MPH | gust MPH | rain 1hr in | rain 24hr in | rain mn in | humidity % | barometer mb |
| 20260505083043 | 64 | 264 | 7.0 | 0.0 | 0.00 | 0.00 | 0.00 | 68 | 1003.0 |
| 20260505081634 | 63 | 257 | 6.0 | 0.0 | 0.00 | 0.00 | 0.00 | 70 | 1002.8 |
| 20260505074516 | 63 | 214 | 5.0 | 0.0 | 0.00 | 0.00 | 0.00 | 72 | 1002.5 |
| 20260505073012 | 64 | 222 | 11.0 | 0.0 | 0.00 | 0.00 | 0.00 | 70 | 1002.1 |
| 20260505071556 | 64 | 238 | 10.0 | 0.0 | 0.00 | 0.00 | 0.00 | 69 | 1001.9 |
| 20260505070052 | 65 | 188 | 12.0 | 0.0 | 0.00 | 0.00 | 0.00 | 65 | 1002.0 |
| 20260505064537 | 66 | 238 | 10.0 | 0.0 | 0.00 | 0.00 | 0.00 | 63 | 1001.7 |
| 20260505063024 | 67 | 202 | 11.0 | 0.0 | 0.00 | 0.00 | 0.00 | 62 | 1001.8 |
| 20260505061512 | 67 | 208 | 9.0 | 0.0 | 0.00 | 0.00 | 0.00 | 62 | 1001.8 |
| 20260505060058 | 67 | 230 | 10.0 | 0.0 | 0.00 | 0.00 | 0.00 | 61 | 1001.9 |
| 20260505060001 | 67 | 232 | 10.0 | 0.0 | 0.00 | 0.00 | 0.00 | 61 | 1001.9 |
| 20260505054551 | 67 | 245 | 11.0 | 0.0 | 0.00 | 0.00 | 0.00 | 60 | 1002.0 |
| 20260505053033 | 67 | 194 | 10.0 | 0.0 | 0.00 | 0.00 | 0.00 | 61 | 1002.2 |
| 20260505051525 | 67 | 219 | 9.0 | 0.0 | 0.00 | 0.00 | 0.00 | 62 | 1002.4 |
| 20260505041554 | 66 | 217 | 6.0 | 0.0 | 0.00 | 0.00 | 0.00 | 65 | 1002.7 |
| 20260505040042 | 66 | 244 | 6.0 | 0.0 | 0.00 | 0.00 | 0.00 | 66 | 1002.8 |
| 20260505034532 | 65 | 206 | 5.0 | 0.0 | 0.00 | 0.00 | 0.00 | 68 | 1002.8 |
| 20260505033028 | 65 | 180 | 4.0 | 0.0 | 0.00 | 0.00 | 0.00 | 69 | 1002.9 |
| 20260505031536 | 65 | 198 | 4.0 | 0.0 | 0.00 | 0.00 | 0.00 | 68 | 1002.9 |
| 20260505030113 | 66 | 211 | 4.0 | 0.0 | 0.00 | 0.00 | 0.00 | 68 | 1002.8 |
| 20260505024555 | 66 | 196 | 4.0 | 0.0 | 0.00 | 0.00 | 0.00 | 67 | 1002.9 |
| 20260505023032 | 66 | 218 | 4.0 | 0.0 | 0.00 | 0.00 | 0.00 | 66 | 1002.9 |
| 20260505021520 | 66 | 175 | 3.0 | 0.0 | 0.00 | 0.00 | 0.00 | 65 | 1002.9 |
| 20260505020015 | 66 | 184 | 2.0 | 0.0 | 0.00 | 0.00 | 0.00 | 65 | 1002.9 |
| 20260505014512 | 66 | 194 | 3.0 | 0.0 | 0.00 | 0.00 | 0.00 | 65 | 1002.9 |
| 20260505013003 | 66 | 177 | 1.0 | 0.0 | 0.00 | 0.00 | 0.00 | 64 | 1002.7 |
| 20260505011554 | 66 | 196 | 3.0 | 0.0 | 0.00 | 0.00 | 0.00 | 63 | 1002.6 |
| 20260505010039 | 67 | 195 | 3.0 | 0.0 | 0.00 | 0.00 | 0.00 | 62 | 1002.6 |
| 20260505004533 | 68 | 173 | 5.0 | 0.0 | 0.00 | 0.00 | 0.00 | 61 | 1002.7 |
| 20260505003019 | 68 | 211 | 5.0 | 0.0 | 0.00 | 0.00 | 0.00 | 60 | 1002.7 |
| 20260505001528 | 68 | 223 | 6.0 | 0.0 | 0.00 | 0.00 | 0.00 | 60 | 1002.6 |
| 20260505000011 | 69 | 216 | 6.0 | 0.0 | 0.00 | 0.00 | 0.00 | 59 | 1002.6 |
| 20260504234600 | 69 | 205 | 6.0 | 0.0 | 0.00 | 0.00 | 0.00 | 59 | 1002.8 |
| 20260504234501 | 69 | 187 | 7.0 | 0.0 | 0.00 | 0.00 | 0.00 | 59 | 1002.7 |
| 20260504233106 | 69 | 207 | 9.0 | 0.0 | 0.00 | 0.00 | 0.00 | 58 | 1002.7 |
| 20260504231549 | 68 | 215 | 10.0 | 0.0 | 0.00 | 0.00 | 0.00 | 59 | 1002.8 |
| 20260504230039 | 69 | 207 | 10.0 | 0.0 | 0.00 | 0.00 | 0.00 | 58 | 1003.0 |
| 20260504224527 | 69 | 220 | 12.0 | 0.0 | 0.00 | 0.00 | 0.00 | 56 | 1003.2 |
| 20260504223033 | 71 | 194 | 9.0 | 0.0 | 0.00 | 0.00 | 0.00 | 54 | 1003.1 |
| 20260504221511 | 72 | 227 | 8.0 | 0.0 | 0.00 | 0.00 | 0.00 | 50 | 1003.0 |
| 20260504220059 | 72 | 227 | 7.0 | 0.0 | 0.00 | 0.00 | 0.00 | 53 | 1003.2 |
| 20260504220010 | 72 | 199 | 7.0 | 0.0 | 0.00 | 0.00 | 0.00 | 53 | 1003.2 |
| 20260504214548 | 72 | 259 | 11.0 | 0.0 | 0.00 | 0.00 | 0.00 | 51 | 1003.0 |
| 20260504213051 | 72 | 227 | 9.0 | 0.0 | 0.00 | 0.00 | 0.00 | 53 | 1003.0 |
| 20260504211539 | 72 | 225 | 12.0 | 0.0 | 0.00 | 0.00 | 0.00 | 55 | 1003.2 |
| 20260504210023 | 71 | 223 | 14.0 | 0.0 | 0.00 | 0.00 | 0.00 | 55 | 1003.3 |
| 20260504204532 | 71 | 208 | 14.0 | 0.0 | 0.00 | 0.00 | 0.00 | 55 | 1003.5 |
| 20260504203107 | 72 | 210 | 15.0 | 0.0 | 0.00 | 0.00 | 0.00 | 54 | 1003.4 |
| 20260504201542 | 73 | 224 | 12.0 | 0.0 | 0.00 | 0.00 | 0.00 | 53 | 1003.6 |
| 20260504200027 | 73 | 223 | 13.0 | 0.0 | 0.00 | 0.00 | 0.00 | 55 | 1003.7 |
| 20260504194521 | 72 | 217 | 12.0 | 0.0 | 0.00 | 0.00 | 0.00 | 57 | 1003.8 |
| 20260504193017 | 73 | 208 | 10.0 | 0.0 | 0.00 | 0.00 | 0.00 | 58 | 1003.7 |
| 20260504191502 | 72 | 194 | 11.0 | 0.0 | 0.00 | 0.00 | 0.00 | 56 | 1004.1 |
| 20260504190055 | 72 | 237 | 10.0 | 0.0 | 0.00 | 0.00 | 0.00 | 55 | 1003.9 |
| 20260504184541 | 71 | 194 | 11.0 | 0.0 | 0.00 | 0.00 | 0.00 | 56 | 1004.2 |
| 20260504183031 | 71 | 228 | 10.0 | 0.0 | 0.00 | 0.00 | 0.00 | 55 | 1004.2 |
| 20260504181521 | 70 | 190 | 10.0 | 0.0 | 0.00 | 0.00 | 0.00 | 57 | 1004.4 |
| 20260504180008 | 70 | 211 | 9.0 | 0.0 | 0.00 | 0.00 | 0.00 | 58 | 1004.6 |
| 20260504174616 | 70 | 200 | 9.0 | 0.0 | 0.00 | 0.00 | 0.00 | 59 | 1004.6 |
| 20260504174503 | 70 | 211 | 9.0 | 0.0 | 0.00 | 0.00 | 0.00 | 60 | 1004.7 |
| 20260504173046 | 69 | 202 | 8.0 | 0.0 | 0.00 | 0.00 | 0.00 | 59 | 1004.8 |
| 20260504171535 | 68 | 215 | 9.0 | 0.0 | 0.00 | 0.00 | 0.00 | 62 | 1005.1 |